Weather Roundup
Issued by NWS

Home | Current Version | Previous Version | Graphics & Text | Print | Product List | Glossary Off
Versions: 1 2 3 4 5 6 7 8 9 10 11 12 13 14 15 16 17 18 19 20 21 22 23 24 25 26 27 28 29 30 31 32 33 34 35 36 37 38 39 40 41 42 43 44 45 46 47 48 49 50

000
NZUS93 KARX 251959
HRRWXR

CURRENT HOURLY OBSERVATIONS ACROSS
MUCH OF THE UPPER MISSISSIPPI VALLEY
NATIONAL WEATHER SERVICE LA CROSSE WI
200 PM CST TUE NOV 25 2014


...SOUTHEAST MINNESOTA...


CITY           SKY/WX    TMP DP  RH WIND       PRES   REMARKS
ROCHESTER      PTSUNNY   22  13  68 SW7       30.04F WCI  13
ROCHESTER/MAYO MOCLDY    26  12  55 W3        30.04F
WINONA         SUNNY     25  14  63 CALM      30.09S
AUSTIN         SUNNY     25  14  63 SW6       30.04F WCI  18
ALBERT LEA     SUNNY     27  12  54 SW7       30.03F WCI  19
DODGE CENTER   CLOUDY    23  16  74 SW5       30.02F WCI  17
PRESTON        PTSUNNY   20  13  75 W5        30.05F WCI  14
OWATONNA       CLOUDY    25  14  63 S6        30.03S WCI  18
FARIBAULT      CLOUDY    25  12  58 S6        30.04S WCI  18
$$

...ELSEWHERE IN MINNESOTA...


CITY           SKY/WX    TMP DP  RH WIND       PRES   REMARKS
MINNEAPOLIS    CLOUDY    20  11  68 VRB3      30.05S
INTNL FALLS    PTSUNNY   17   5  59 W5        29.93F WCI  10
DULUTH         MOSUNNY   20   8  60 SW12      29.94S WCI   8
RED WING       CLOUDY    25  12  58 CALM      30.05F
REDWOOD FALLS  CLOUDY    31  12  45 S10       29.98F WCI  22
MANKATO        MOSUNNY   27   7  43 S7        30.02F WCI  19
WORTHINGTON    MOSUNNY   32  16  51 S12       29.95F WCI  23
FAIRMONT       CLOUDY    30   7  37 S9        30.00F WCI  22
$$

...SOUTHWEST WISCONSIN...


CITY           SKY/WX    TMP DP  RH WIND       PRES   REMARKS
LA CROSSE      SUNNY     27  13  55 CALM      30.09R
PRAIRIE DU CHI SUNNY     24  12  62 W3        30.10S
BOSCOBEL       SUNNY     25  15  66 SW8       30.10R WCI  16
LONE ROCK      NOT AVBL
PLATTEVILLE    SUNNY     24  17  74 W8        30.08S WCI  14
FORT MC COY    SUNNY     23  15  70 W5        30.08R WCI  17
VIROQUA        FAIR      22  14  73 SW6       30.05R WCI  14
WIS DELLS      CLOUDY    21  15  76 W6        30.05S WCI  14
$$

...ELSEWHERE IN WISCONSIN...


CITY           SKY/WX    TMP DP  RH WIND       PRES   REMARKS
MILWAUKEE      CLOUDY    25  17  72 W9        30.07R WCI  15
MADISON        CLOUDY    22  16  78 W7        30.07R WCI  13
GREEN BAY      CLOUDY    24  16  71 W13       30.03R WCI  12
EAU CLAIRE     NOT AVBL
BLACK RVR FLS  FAIR      24  13  62 W5        30.06S WCI  19
MEDFORD        MOSUNNY   19  11  70 W6        29.99S WCI  11
WAUSAU         PTSUNNY   18  12  77 W10       30.01R WCI   6
WIS RAPIDS     PTSUNNY   20  13  74 SW8       30.06R WCI  10
MARSHFIELD     SUNNY     20  11  68 W7        30.02R WCI  11
RICE LAKE      CLOUDY    19  11  71 W3        30.04S
$$

...NORTHEAST IOWA...


CITY           SKY/WX    TMP DP  RH WIND       PRES   REMARKS
DECORAH        SUNNY     19  12  73 W7        30.07S WCI  10
MASON CITY     SUNNY     26  10  50 SW3       30.06F
CHARLES CITY   SUNNY     23  12  63 W6        30.09S WCI  16
OELWEIN        SUNNY     21  14  73 W10       30.10S WCI  10
$$

...ELSEWHERE IN IOWA...


CITY           SKY/WX    TMP DP  RH WIND       PRES   REMARKS
DES MOINES     MOSUNNY   36   7  29 W8        30.09F WCI  30
IOWA CITY      SUNNY     28  20  71 SW7       30.14S WCI  21
FORT DODGE     SUNNY     34   9  35 SW6       30.05F WCI  29
$$

...NORTHERN ILLINOIS...


CITY           SKY/WX    TMP DP  RH WIND       PRES   REMARKS
CHICAGO-OHARE  MOSUNNY   25  17  72 W12       30.11R WCI  14
CHICAGO-MIDWAY PTSUNNY   28  18  66 SW15      30.13R WCI  16
MOLINE         SUNNY     26  16  65 W6        30.14R WCI  19
ROCKFORD       MOSUNNY   22  14  71 W8        30.14R WCI  12
PEORIA         CLOUDY    29  20  69 SW8       30.16S WCI  21
$$

NOTE: "FAIR" INDICATES FEW OR NO CLOUDS BELOW 12,000 FEET WITH NO
SIGNIFICANT WEATHER AND/OR OBSTRUCTIONS TO VISIBILITY. WIND
SPEEDS ARE IN MILES-PER-HOUR.



USA.gov is the U.S. government's official web portal to all federal, state and local government web resources and services.